Time,TemperatureF,DewpointF,PressureIn,WindDirection,WindDirectionDegrees,WindSpeedMPH,WindSpeedGustMPH,Humidity,HourlyPrecipIn,Conditions,Clouds,dailyrainin,SoftwareType,DateUTC
2013-01-26 00:00:00,20.3,10.4,30.29,NNW,328,3.0,-999.0,65,0.00,,,0.00,Wunderground v.1.15,2013-01-26 06:00:00,
2013-01-26 00:05:00,20.2,10.3,30.29,NNW,329,4.0,-999.0,65,0.00,,,0.00,Wunderground v.1.15,2013-01-26 06:05:00,
2013-01-26 00:10:00,20.1,10.2,30.29,North,351,4.0,-999.0,65,0.00,,,0.00,Wunderground v.1.15,2013-01-26 06:10:00,
2013-01-26 00:15:00,19.9,10.0,30.30,NW,325,3.0,-999.0,65,0.00,,,0.00,Wunderground v.1.15,2013-01-26 06:15:00,
2013-01-26 00:25:00,19.5,10.0,30.30,North,5,4.0,-999.0,66,0.00,,,0.00,Wunderground v.1.15,2013-01-26 06:25:00,
2013-01-26 00:30:00,19.4,9.9,30.30,North,355,4.0,-999.0,66,0.00,,,0.00,Wunderground v.1.15,2013-01-26 06:30:00,
2013-01-26 00:35:00,19.3,10.1,30.31,NNW,348,4.0,-999.0,67,0.00,,,0.00,Wunderground v.1.15,2013-01-26 06:35:00,
2013-01-26 00:40:00,19.2,10.0,30.31,NNE,26,4.0,-999.0,67,0.00,,,0.00,Wunderground v.1.15,2013-01-26 06:40:00,
2013-01-26 00:45:00,19.1,9.9,30.30,North,351,4.0,-999.0,67,0.00,,,0.00,Wunderground v.1.15,2013-01-26 06:45:00,
2013-01-26 00:55:00,18.8,10.0,30.31,NNW,336,3.0,-999.0,68,0.00,,,0.00,Wunderground v.1.15,2013-01-26 06:55:00,
2013-01-26 01:00:00,18.6,9.8,30.31,NNE,25,3.0,-999.0,68,0.00,,,0.00,Wunderground v.1.15,2013-01-26 07:00:00,
2013-01-26 01:05:00,18.5,9.7,30.31,NNW,336,4.0,-999.0,68,0.00,,,0.00,Wunderground v.1.15,2013-01-26 07:05:00,
2013-01-26 01:10:00,18.4,9.9,30.31,NE,37,4.0,-999.0,69,0.00,,,0.00,Wunderground v.1.15,2013-01-26 07:10:00,
2013-01-26 01:15:00,18.3,9.8,30.31,NW,309,4.0,-999.0,69,0.00,,,0.00,Wunderground v.1.15,2013-01-26 07:15:00,
2013-01-26 01:19:00,18.2,9.7,30.32,NW,325,3.0,-999.0,69,0.00,,,0.00,Wunderground v.1.15,2013-01-26 07:19:00,
2013-01-26 01:29:00,18.0,9.5,30.31,NNW,336,3.0,-999.0,69,0.00,,,0.00,Wunderground v.1.15,2013-01-26 07:29:00,
2013-01-26 01:34:00,17.8,9.7,30.31,North,355,3.0,-999.0,70,0.00,,,0.00,Wunderground v.1.15,2013-01-26 07:34:00,
2013-01-26 01:39:00,17.7,9.6,30.31,North,355,3.0,-999.0,70,0.00,,,0.00,Wunderground v.1.15,2013-01-26 07:39:00,
2013-01-26 01:44:00,17.5,9.4,30.31,NNW,346,2.0,-999.0,70,0.00,,,0.00,Wunderground v.1.15,2013-01-26 07:44:00,
2013-01-26 01:49:00,17.4,9.6,30.31,NNW,329,1.0,-999.0,71,0.00,,,0.00,Wunderground v.1.15,2013-01-26 07:49:00,
2013-01-26 01:55:00,17.3,9.5,30.32,North,5,1.0,-999.0,71,0.00,,,0.00,Wunderground v.1.15,2013-01-26 07:55:00,
2013-01-26 02:00:00,17.1,9.3,30.32,North,360,1.0,-999.0,71,0.00,,,0.00,Wunderground v.1.15,2013-01-26 08:00:00,
2013-01-26 02:05:00,17.0,9.5,30.32,NNW,345,1.0,-999.0,72,0.00,,,0.00,Wunderground v.1.15,2013-01-26 08:05:00,
2013-01-26 02:10:00,16.9,9.4,30.32,NNW,336,2.0,-999.0,72,0.00,,,0.00,Wunderground v.1.15,2013-01-26 08:10:00,
2013-01-26 02:15:00,16.8,9.6,30.32,NNE,22,2.0,-999.0,73,0.00,,,0.00,Wunderground v.1.15,2013-01-26 08:15:00,
2013-01-26 02:20:00,16.7,9.5,30.32,NW,321,2.0,-999.0,73,0.00,,,0.00,Wunderground v.1.15,2013-01-26 08:20:00,
2013-01-26 02:30:00,16.6,9.4,30.32,NW,311,2.0,-999.0,73,0.00,,,0.00,Wunderground v.1.15,2013-01-26 08:30:00,
2013-01-26 02:35:00,16.4,9.6,30.32,NW,313,2.0,-999.0,74,0.00,,,0.00,Wunderground v.1.15,2013-01-26 08:35:00,
2013-01-26 02:40:00,16.4,9.6,30.33,NNW,341,3.0,-999.0,74,0.00,,,0.00,Wunderground v.1.15,2013-01-26 08:40:00,
2013-01-26 02:45:00,16.3,9.5,30.33,WNW,294,3.0,-999.0,74,0.00,,,0.00,Wunderground v.1.15,2013-01-26 08:45:00,
2013-01-26 02:50:00,16.2,9.4,30.33,NNW,335,2.0,-999.0,74,0.00,,,0.00,Wunderground v.1.15,2013-01-26 08:50:00,
2013-01-26 02:55:00,16.1,9.3,30.33,NNW,335,2.0,-999.0,74,0.00,,,0.00,Wunderground v.1.15,2013-01-26 08:55:00,
2013-01-26 03:05:00,15.9,9.4,30.33,North,355,2.0,-999.0,75,0.00,,,0.00,Wunderground v.1.15,2013-01-26 09:05:00,
2013-01-26 03:10:00,15.8,9.3,30.33,NNE,21,2.0,-999.0,75,0.00,,,0.00,Wunderground v.1.15,2013-01-26 09:10:00,
2013-01-26 03:15:00,15.6,9.4,30.34,North,5,2.0,-999.0,76,0.00,,,0.00,Wunderground v.1.15,2013-01-26 09:15:00,
2013-01-26 03:20:00,15.6,9.4,30.34,NNW,338,3.0,-999.0,76,0.00,,,0.00,Wunderground v.1.15,2013-01-26 09:20:00,
2013-01-26 03:25:00,15.6,9.4,30.34,NNW,338,2.0,-999.0,76,0.00,,,0.00,Wunderground v.1.15,2013-01-26 09:25:00,
2013-01-26 03:34:00,15.4,9.2,30.35,NNW,342,2.0,-999.0,76,0.00,,,0.00,Wunderground v.1.15,2013-01-26 09:34:00,
2013-01-26 03:39:00,15.3,9.1,30.34,North,355,2.0,-999.0,76,0.00,,,0.00,Wunderground v.1.15,2013-01-26 09:39:00,
2013-01-26 03:44:00,15.2,9.3,30.35,North,11,2.0,-999.0,77,0.00,,,0.00,Wunderground v.1.15,2013-01-26 09:44:00,
2013-01-26 03:49:00,15.1,9.2,30.35,NNE,24,2.0,-999.0,77,0.00,,,0.00,Wunderground v.1.15,2013-01-26 09:49:00,
2013-01-26 03:54:00,15.1,9.2,30.35,North,355,3.0,-999.0,77,0.00,,,0.00,Wunderground v.1.15,2013-01-26 09:54:00,
2013-01-26 03:59:00,15.0,9.1,30.35,NNE,17,2.0,-999.0,77,0.00,,,0.00,Wunderground v.1.15,2013-01-26 09:59:00,
2013-01-26 04:05:00,14.9,9.0,30.35,NW,315,2.0,-999.0,77,0.00,,,0.00,Wunderground v.1.15,2013-01-26 10:05:00,
2013-01-26 04:14:00,14.7,8.8,30.35,NNE,18,2.0,-999.0,77,0.00,,,0.00,Wunderground v.1.15,2013-01-26 10:14:00,
2013-01-26 04:19:00,14.6,9.0,30.35,NNE,22,2.0,-999.0,78,0.00,,,0.00,Wunderground v.1.15,2013-01-26 10:19:00,
2013-01-26 04:24:00,14.6,9.0,30.35,NNE,15,3.0,-999.0,78,0.00,,,0.00,Wunderground v.1.15,2013-01-26 10:24:00,
2013-01-26 04:29:00,14.5,8.9,30.36,North,5,3.0,-999.0,78,0.00,,,0.00,Wunderground v.1.15,2013-01-26 10:29:00,
2013-01-26 04:35:00,14.4,8.8,30.36,NNW,335,2.0,-999.0,78,0.00,,,0.00,Wunderground v.1.15,2013-01-26 10:35:00,
2013-01-26 04:40:00,14.3,8.7,30.37,NNW,335,1.0,-999.0,78,0.00,,,0.00,Wunderground v.1.15,2013-01-26 10:40:00,
2013-01-26 04:45:00,14.2,8.6,30.37,NNW,334,1.0,-999.0,78,0.00,,,0.00,Wunderground v.1.15,2013-01-26 10:45:00,
2013-01-26 04:50:00,14.1,8.8,30.37,North,5,1.0,-999.0,79,0.00,,,0.00,Wunderground v.1.15,2013-01-26 10:50:00,
2013-01-26 04:55:00,14.0,8.7,30.37,NW,307,1.0,-999.0,79,0.00,,,0.00,Wunderground v.1.15,2013-01-26 10:55:00,
2013-01-26 05:00:00,14.0,8.7,30.38,NW,309,2.0,-999.0,79,0.00,,,0.00,Wunderground v.1.15,2013-01-26 11:00:00,
2013-01-26 05:10:00,13.7,8.7,30.39,West,277,1.0,-999.0,80,0.00,,,0.00,Wunderground v.1.15,2013-01-26 11:10:00,
2013-01-26 05:15:00,13.5,8.5,30.39,West,277,1.0,-999.0,80,0.00,,,0.00,Wunderground v.1.15,2013-01-26 11:15:00,
2013-01-26 05:20:00,13.4,8.4,30.39,NW,306,0.0,-999.0,80,0.00,,,0.00,Wunderground v.1.15,2013-01-26 11:20:00,
2013-01-26 05:25:00,13.3,8.3,30.40,NW,306,0.0,-999.0,80,0.00,,,0.00,Wunderground v.1.15,2013-01-26 11:25:00,
2013-01-26 05:30:00,13.2,8.2,30.40,NNW,327,1.0,-999.0,80,0.00,,,0.00,Wunderground v.1.15,2013-01-26 11:30:00,
2013-01-26 05:35:00,13.2,8.5,30.40,NNW,327,1.0,-999.0,81,0.00,,,0.00,Wunderground v.1.15,2013-01-26 11:35:00,
2013-01-26 05:45:00,13.2,8.5,30.41,NNW,327,1.0,-999.0,81,0.00,,,0.00,Wunderground v.1.15,2013-01-26 11:45:00,
2013-01-26 05:50:00,13.1,8.4,30.41,NNW,327,0.0,-999.0,81,0.00,,,0.00,Wunderground v.1.15,2013-01-26 11:50:00,
2013-01-26 05:55:00,12.9,8.2,30.41,NNW,327,0.0,-999.0,81,0.00,,,0.00,Wunderground v.1.15,2013-01-26 11:55:00,
2013-01-26 06:00:00,12.8,8.1,30.41,NNW,327,0.0,-999.0,81,0.00,,,0.00,Wunderground v.1.15,2013-01-26 12:00:00,
2013-01-26 06:05:00,12.6,7.9,30.41,NNW,327,0.0,-999.0,81,0.00,,,0.00,Wunderground v.1.15,2013-01-26 12:05:00,
2013-01-26 06:14:00,12.5,7.8,30.42,NNW,327,0.0,-999.0,81,0.00,,,0.00,Wunderground v.1.15,2013-01-26 12:14:00,
2013-01-26 06:19:00,12.3,7.9,30.42,NNW,327,0.0,-999.0,82,0.00,,,0.00,Wunderground v.1.15,2013-01-26 12:19:00,
2013-01-26 06:24:00,12.1,7.7,30.42,NNW,327,0.0,-999.0,82,0.00,,,0.00,Wunderground v.1.15,2013-01-26 12:24:00,
2013-01-26 06:29:00,12.0,7.6,30.42,NNW,327,0.0,-999.0,82,0.00,,,0.00,Wunderground v.1.15,2013-01-26 12:29:00,
2013-01-26 06:34:00,11.8,7.6,30.42,NNW,327,0.0,-999.0,83,0.00,,,0.00,Wunderground v.1.15,2013-01-26 12:34:00,
2013-01-26 06:39:00,11.8,7.6,30.42,NNW,327,1.0,-999.0,83,0.00,,,0.00,Wunderground v.1.15,2013-01-26 12:39:00,
2013-01-26 06:49:00,11.8,7.6,30.42,NNW,327,0.0,-999.0,83,0.00,,,0.00,Wunderground v.1.15,2013-01-26 12:49:00,
2013-01-26 06:55:00,11.9,7.5,30.42,NNW,327,1.0,-999.0,82,0.00,,,0.00,Wunderground v.1.15,2013-01-26 12:55:00,
2013-01-26 07:00:00,11.9,7.5,30.43,NNW,327,1.0,-999.0,82,0.00,,,0.00,Wunderground v.1.15,2013-01-26 13:00:00,
2013-01-26 07:05:00,11.9,7.5,30.43,NNW,327,1.0,-999.0,82,0.00,,,0.00,Wunderground v.1.15,2013-01-26 13:05:00,
2013-01-26 07:10:00,11.8,7.4,30.43,NNW,327,0.0,-999.0,82,0.00,,,0.00,Wunderground v.1.15,2013-01-26 13:10:00,
2013-01-26 07:20:00,11.7,7.3,30.43,NNW,327,0.0,-999.0,82,0.00,,,0.00,Wunderground v.1.15,2013-01-26 13:20:00,
2013-01-26 07:25:00,11.6,7.2,30.43,NNW,327,0.0,-999.0,82,0.00,,,0.00,Wunderground v.1.15,2013-01-26 13:25:00,
2013-01-26 07:30:00,11.6,7.4,30.43,NNW,332,0.0,-999.0,83,0.00,,,0.00,Wunderground v.1.15,2013-01-26 13:30:00,
2013-01-26 07:35:00,11.6,7.4,30.44,NNW,332,0.0,-999.0,83,0.00,,,0.00,Wunderground v.1.15,2013-01-26 13:35:00,
2013-01-26 07:49:00,12.0,8.4,30.44,NNW,332,0.0,-999.0,85,0.00,,,0.00,Wunderground v.1.15,2013-01-26 13:49:00,
2013-01-26 07:54:00,12.6,8.9,30.44,NNW,332,0.0,-999.0,85,0.00,,,0.00,Wunderground v.1.15,2013-01-26 13:54:00,
2013-01-26 07:59:00,13.1,9.2,30.44,NNE,22,0.0,-999.0,84,0.00,,,0.00,Wunderground v.1.15,2013-01-26 13:59:00,
2013-01-26 08:04:00,13.6,9.4,30.44,NNE,22,0.0,-999.0,83,0.00,,,0.00,Wunderground v.1.15,2013-01-26 14:04:00,
2013-01-26 08:09:00,14.2,10.0,30.44,NNE,22,0.0,-999.0,83,0.00,,,0.00,Wunderground v.1.15,2013-01-26 14:09:00,
2013-01-26 08:14:00,14.6,9.8,30.44,NNE,21,1.0,-999.0,81,0.00,,,0.00,Wunderground v.1.15,2013-01-26 14:14:00,
2013-01-26 08:19:00,14.8,9.7,30.44,NNE,15,2.0,-999.0,80,0.00,,,0.00,Wunderground v.1.15,2013-01-26 14:19:00,
2013-01-26 08:25:00,15.4,10.6,30.45,NNE,15,1.0,-999.0,81,0.00,,,0.00,Wunderground v.1.15,2013-01-26 14:25:00,
2013-01-26 08:30:00,15.9,10.5,30.45,NE,40,1.0,-999.0,79,0.00,,,0.00,Wunderground v.1.15,2013-01-26 14:30:00,
2013-01-26 08:35:00,16.1,10.4,30.45,NE,38,2.0,-999.0,78,0.00,,,0.00,Wunderground v.1.15,2013-01-26 14:35:00,
2013-01-26 08:40:00,16.3,10.6,30.46,NE,35,2.0,-999.0,78,0.00,,,0.00,Wunderground v.1.15,2013-01-26 14:40:00,
2013-01-26 08:45:00,16.5,10.5,30.46,NNE,19,2.0,-999.0,77,0.00,,,0.00,Wunderground v.1.15,2013-01-26 14:45:00,
2013-01-26 08:50:00,16.7,10.4,30.46,NE,38,3.0,-999.0,76,0.00,,,0.00,Wunderground v.1.15,2013-01-26 14:50:00,
2013-01-26 09:00:00,16.8,10.2,30.46,East,90,2.0,-999.0,75,0.00,,,0.00,Wunderground v.1.15,2013-01-26 15:00:00,
2013-01-26 09:05:00,17.1,10.5,30.46,NE,48,2.0,-999.0,75,0.00,,,0.00,Wunderground v.1.15,2013-01-26 15:05:00,
2013-01-26 09:10:00,17.6,11.0,30.46,East,91,2.0,-999.0,75,0.00,,,0.00,Wunderground v.1.15,2013-01-26 15:10:00,
2013-01-26 09:15:00,17.8,10.9,30.46,ENE,63,3.0,-999.0,74,0.00,,,0.00,Wunderground v.1.15,2013-01-26 15:15:00,
2013-01-26 09:20:00,18.1,11.2,30.46,NNE,30,2.0,-999.0,74,0.00,,,0.00,Wunderground v.1.15,2013-01-26 15:20:00,
2013-01-26 09:30:00,18.8,11.6,30.47,NNE,31,3.0,-999.0,73,0.00,,,0.00,Wunderground v.1.15,2013-01-26 15:30:00,
2013-01-26 09:35:00,19.2,12.0,30.46,ENE,63,3.0,-999.0,73,0.00,,,0.00,Wunderground v.1.15,2013-01-26 15:35:00,
2013-01-26 09:40:00,19.4,11.8,30.47,East,90,3.0,-999.0,72,0.00,,,0.00,Wunderground v.1.15,2013-01-26 15:40:00,
2013-01-26 09:45:00,19.8,11.9,30.47,NNE,28,2.0,-999.0,71,0.00,,,0.00,Wunderground v.1.15,2013-01-26 15:45:00,
2013-01-26 09:50:00,20.0,12.1,30.47,ENE,63,3.0,-999.0,71,0.00,,,0.00,Wunderground v.1.15,2013-01-26 15:50:00,
2013-01-26 09:55:00,20.5,12.6,30.47,ENE,69,2.0,-999.0,71,0.00,,,0.00,Wunderground v.1.15,2013-01-26 15:55:00,
2013-01-26 10:05:00,21.5,12.6,30.47,ENE,75,2.0,-999.0,68,0.00,,,0.00,Wunderground v.1.15,2013-01-26 16:05:00,
2013-01-26 10:10:00,21.6,12.3,30.47,East,80,2.0,-999.0,67,0.00,,,0.00,Wunderground v.1.15,2013-01-26 16:10:00,
2013-01-26 10:15:00,21.7,12.4,30.47,ESE,115,2.0,-999.0,67,0.00,,,0.00,Wunderground v.1.15,2013-01-26 16:15:00,
2013-01-26 10:20:00,22.1,12.8,30.47,East,82,2.0,-999.0,67,0.00,,,0.00,Wunderground v.1.15,2013-01-26 16:20:00,
2013-01-26 10:25:00,22.5,13.2,30.47,ENE,71,1.0,-999.0,67,0.00,,,0.00,Wunderground v.1.15,2013-01-26 16:25:00,
2013-01-26 10:35:00,23.0,13.3,30.48,East,93,1.0,-999.0,66,0.00,,,0.00,Wunderground v.1.15,2013-01-26 16:35:00,
2013-01-26 10:40:00,23.5,13.5,30.48,SSE,159,2.0,-999.0,65,0.00,,,0.00,Wunderground v.1.15,2013-01-26 16:40:00,
2013-01-26 10:45:00,23.9,13.1,30.48,ESE,106,2.0,-999.0,63,0.00,,,0.00,Wunderground v.1.15,2013-01-26 16:45:00,
2013-01-26 10:50:00,23.7,12.2,30.48,ESE,108,3.0,-999.0,61,0.00,,,0.00,Wunderground v.1.15,2013-01-26 16:50:00,
2013-01-26 10:55:00,23.7,12.9,30.48,ESE,117,4.0,-999.0,63,0.00,,,0.00,Wunderground v.1.15,2013-01-26 16:55:00,
2013-01-26 11:00:00,23.9,12.4,30.49,ENE,74,3.0,-999.0,61,0.00,,,0.00,Wunderground v.1.15,2013-01-26 17:00:00,
2013-01-26 11:10:00,24.2,11.9,30.49,East,90,2.0,-999.0,59,0.00,,,0.00,Wunderground v.1.15,2013-01-26 17:10:00,
2013-01-26 11:15:00,24.5,12.6,30.48,NE,51,2.0,-999.0,60,0.00,,,0.00,Wunderground v.1.15,2013-01-26 17:15:00,
2013-01-26 11:20:00,24.6,12.7,30.48,NE,46,2.0,-999.0,60,0.00,,,0.00,Wunderground v.1.15,2013-01-26 17:20:00,
2013-01-26 11:25:00,24.8,12.1,30.48,SSE,161,1.0,-999.0,58,0.00,,,0.00,Wunderground v.1.15,2013-01-26 17:25:00,
2013-01-26 11:30:00,25.3,13.0,30.49,SSE,166,1.0,-999.0,59,0.00,,,0.00,Wunderground v.1.15,2013-01-26 17:30:00,
2013-01-26 11:40:00,25.9,11.9,30.48,SSE,156,2.0,-999.0,55,0.00,,,0.00,Wunderground v.1.15,2013-01-26 17:40:00,
2013-01-26 11:45:00,25.8,12.2,30.49,SSE,156,1.0,-999.0,56,0.00,,,0.00,Wunderground v.1.15,2013-01-26 17:45:00,
2013-01-26 11:50:00,26.3,12.7,30.48,South,169,1.0,-999.0,56,0.00,,,0.00,Wunderground v.1.15,2013-01-26 17:50:00,
2013-01-26 11:55:00,26.8,12.8,30.48,South,176,2.0,-999.0,55,0.00,,,0.00,Wunderground v.1.15,2013-01-26 17:55:00,
2013-01-26 12:00:00,27.2,12.7,30.48,South,176,2.0,-999.0,54,0.00,,,0.00,Wunderground v.1.15,2013-01-26 18:00:00,
2013-01-26 12:05:00,27.6,13.1,30.47,South,183,1.0,-999.0,54,0.00,,,0.00,Wunderground v.1.15,2013-01-26 18:05:00,
2013-01-26 12:15:00,28.1,12.7,30.47,SSW,193,3.0,-999.0,52,0.00,,,0.00,Wunderground v.1.15,2013-01-26 18:15:00,
2013-01-26 12:20:00,28.0,12.6,30.46,SSW,196,2.0,-999.0,52,0.00,,,0.00,Wunderground v.1.15,2013-01-26 18:20:00,
2013-01-26 12:25:00,28.1,12.3,30.46,SSW,196,1.0,-999.0,51,0.00,,,0.00,Wunderground v.1.15,2013-01-26 18:25:00,
2013-01-26 12:30:00,28.1,12.3,30.45,SSW,197,1.0,-999.0,51,0.00,,,0.00,Wunderground v.1.15,2013-01-26 18:30:00,
2013-01-26 12:35:00,27.9,11.6,30.45,SSW,200,1.0,-999.0,50,0.00,,,0.00,Wunderground v.1.15,2013-01-26 18:35:00,
2013-01-26 12:45:00,28.4,13.0,30.45,SSW,196,1.0,-999.0,52,0.00,,,0.00,Wunderground v.1.15,2013-01-26 18:45:00,
2013-01-26 12:50:00,28.4,13.0,30.45,South,186,2.0,-999.0,52,0.00,,,0.00,Wunderground v.1.15,2013-01-26 18:50:00,
2013-01-26 12:55:00,29.2,13.7,30.45,SSW,197,3.0,-999.0,52,0.00,,,0.00,Wunderground v.1.15,2013-01-26 18:55:00,
2013-01-26 13:00:00,29.5,13.6,30.45,SSW,208,3.0,-999.0,51,0.00,,,0.00,Wunderground v.1.15,2013-01-26 19:00:00,
2013-01-26 13:05:00,29.7,13.3,30.44,SSW,208,2.0,-999.0,50,0.00,,,0.00,Wunderground v.1.15,2013-01-26 19:05:00,
2013-01-26 13:15:00,29.6,12.8,30.44,WSW,240,2.0,-999.0,49,0.00,,,0.00,Wunderground v.1.15,2013-01-26 19:15:00,
2013-01-26 13:20:00,29.8,13.4,30.44,WSW,249,2.0,-999.0,50,0.00,,,0.00,Wunderground v.1.15,2013-01-26 19:20:00,
2013-01-26 13:25:00,29.9,13.5,30.44,WSW,249,1.0,-999.0,50,0.00,,,0.00,Wunderground v.1.15,2013-01-26 19:25:00,
2013-01-26 13:30:00,29.9,13.0,30.44,WSW,249,1.0,-999.0,49,0.00,,,0.00,Wunderground v.1.15,2013-01-26 19:30:00,
2013-01-26 13:35:00,30.3,13.4,30.44,WSW,248,1.0,-999.0,49,0.00,,,0.00,Wunderground v.1.15,2013-01-26 19:35:00,
2013-01-26 13:40:00,30.4,13.0,30.44,WSW,248,1.0,-999.0,48,0.00,,,0.00,Wunderground v.1.15,2013-01-26 19:40:00,
2013-01-26 13:50:00,30.3,12.9,30.44,WSW,248,1.0,-999.0,48,0.00,,,0.00,Wunderground v.1.15,2013-01-26 19:50:00,
2013-01-26 13:55:00,30.7,13.3,30.44,WSW,248,1.0,-999.0,48,0.00,,,0.00,Wunderground v.1.15,2013-01-26 19:55:00,
2013-01-26 14:00:00,30.6,13.2,30.44,WSW,251,1.0,-999.0,48,0.00,,,0.00,Wunderground v.1.15,2013-01-26 20:00:00,
2013-01-26 14:05:00,31.1,13.7,30.44,WSW,251,1.0,-999.0,48,0.00,,,0.00,Wunderground v.1.15,2013-01-26 20:05:00,
2013-01-26 14:10:00,31.4,13.0,30.44,WSW,251,1.0,-999.0,46,0.00,,,0.00,Wunderground v.1.15,2013-01-26 20:10:00,
2013-01-26 14:20:00,31.0,13.1,30.44,SE,132,1.0,-999.0,47,0.00,,,0.00,Wunderground v.1.15,2013-01-26 20:20:00,
2013-01-26 14:25:00,31.1,13.2,30.44,SE,133,1.0,-999.0,47,0.00,,,0.00,Wunderground v.1.15,2013-01-26 20:25:00,
2013-01-26 14:30:00,31.0,13.1,30.43,ESE,105,1.0,-999.0,47,0.00,,,0.00,Wunderground v.1.15,2013-01-26 20:30:00,
2013-01-26 14:35:00,31.4,13.9,30.43,SE,130,1.0,-999.0,48,0.00,,,0.00,Wunderground v.1.15,2013-01-26 20:35:00,
2013-01-26 14:40:00,31.5,13.6,30.43,ESE,115,1.0,-999.0,47,0.00,,,0.00,Wunderground v.1.15,2013-01-26 20:40:00,
2013-01-26 14:50:00,31.8,13.3,30.43,ESE,115,1.0,-999.0,46,0.00,,,0.00,Wunderground v.1.15,2013-01-26 20:50:00,
2013-01-26 14:55:00,32.2,14.2,30.43,SSE,165,1.0,-999.0,47,0.00,,,0.00,Wunderground v.1.15,2013-01-26 20:55:00,
2013-01-26 15:00:00,32.4,13.9,30.43,SSE,163,1.0,-999.0,46,0.00,,,0.00,Wunderground v.1.15,2013-01-26 21:00:00,
2013-01-26 15:05:00,32.3,13.8,30.43,SSE,162,1.0,-999.0,46,0.00,,,0.00,Wunderground v.1.15,2013-01-26 21:05:00,
2013-01-26 15:10:00,32.7,14.2,30.43,SSE,168,1.0,-999.0,46,0.00,,,0.00,Wunderground v.1.15,2013-01-26 21:10:00,
2013-01-26 15:15:00,33.0,14.4,30.43,SSW,205,2.0,-999.0,46,0.00,,,0.00,Wunderground v.1.15,2013-01-26 21:15:00,
2013-01-26 15:25:00,32.9,14.4,30.43,SSW,210,2.0,-999.0,46,0.00,,,0.00,Wunderground v.1.15,2013-01-26 21:25:00,
2013-01-26 15:30:00,33.1,14.0,30.43,SSW,210,1.0,-999.0,45,0.00,,,0.00,Wunderground v.1.15,2013-01-26 21:30:00,
2013-01-26 15:35:00,32.8,13.2,30.43,SSE,165,2.0,-999.0,44,0.00,,,0.00,Wunderground v.1.15,2013-01-26 21:35:00,
2013-01-26 15:40:00,32.3,13.3,30.43,SSE,150,2.0,-999.0,45,0.00,,,0.00,Wunderground v.1.15,2013-01-26 21:40:00,
2013-01-26 15:45:00,32.1,13.6,30.42,SSE,150,1.0,-999.0,46,0.00,,,0.00,Wunderground v.1.15,2013-01-26 21:45:00,
2013-01-26 15:55:00,31.5,13.1,30.42,SSE,150,2.0,-999.0,46,0.00,,,0.00,Wunderground v.1.15,2013-01-26 21:55:00,
2013-01-26 16:00:00,31.4,13.0,30.42,SSE,149,2.0,-999.0,46,0.00,,,0.00,Wunderground v.1.15,2013-01-26 22:00:00,
2013-01-26 16:05:00,31.3,13.4,30.42,SSE,149,2.0,-999.0,47,0.00,,,0.00,Wunderground v.1.15,2013-01-26 22:05:00,
2013-01-26 16:10:00,31.3,13.4,30.42,SSE,150,1.0,-999.0,47,0.00,,,0.00,Wunderground v.1.15,2013-01-26 22:10:00,
2013-01-26 16:15:00,31.1,13.7,30.42,SSE,150,1.0,-999.0,48,0.00,,,0.00,Wunderground v.1.15,2013-01-26 22:15:00,
2013-01-26 16:20:00,31.0,14.0,30.42,SSE,150,1.0,-999.0,49,0.00,,,0.00,Wunderground v.1.15,2013-01-26 22:20:00,
2013-01-26 16:25:00,30.9,14.0,30.42,SSE,150,1.0,-999.0,49,0.00,,,0.00,Wunderground v.1.15,2013-01-26 22:25:00,
2013-01-26 16:30:00,30.7,13.3,30.43,SSE,150,1.0,-999.0,48,0.00,,,0.00,Wunderground v.1.15,2013-01-26 22:30:00,
2013-01-26 16:35:00,30.5,13.6,30.43,SSE,150,1.0,-999.0,49,0.00,,,0.00,Wunderground v.1.15,2013-01-26 22:35:00,
2013-01-26 16:40:00,30.3,13.4,30.43,SSE,150,0.0,-999.0,49,0.00,,,0.00,Wunderground v.1.15,2013-01-26 22:40:00,
2013-01-26 16:45:00,30.0,13.1,30.43,SSE,150,0.0,-999.0,49,0.00,,,0.00,Wunderground v.1.15,2013-01-26 22:45:00,
2013-01-26 16:50:00,29.8,13.4,30.43,SSE,150,0.0,-999.0,50,0.00,,,0.00,Wunderground v.1.15,2013-01-26 22:50:00,
2013-01-26 17:00:00,29.2,12.8,30.44,SSE,150,0.0,-999.0,50,0.00,,,0.00,Wunderground v.1.15,2013-01-26 23:00:00,
2013-01-26 17:05:00,29.0,13.1,30.44,SSE,150,0.0,-999.0,51,0.00,,,0.00,Wunderground v.1.15,2013-01-26 23:05:00,
2013-01-26 17:10:00,28.7,12.8,30.44,SSE,150,0.0,-999.0,51,0.00,,,0.00,Wunderground v.1.15,2013-01-26 23:10:00,
2013-01-26 17:15:00,28.5,13.1,30.44,SSE,150,0.0,-999.0,52,0.00,,,0.00,Wunderground v.1.15,2013-01-26 23:15:00,
2013-01-26 17:20:00,28.2,12.8,30.45,SSE,150,0.0,-999.0,52,0.00,,,0.00,Wunderground v.1.15,2013-01-26 23:20:00,
2013-01-26 17:30:00,27.6,13.1,30.45,SSE,150,0.0,-999.0,54,0.00,,,0.00,Wunderground v.1.15,2013-01-26 23:30:00,
2013-01-26 17:35:00,27.4,12.9,30.45,SSE,150,0.0,-999.0,54,0.00,,,0.00,Wunderground v.1.15,2013-01-26 23:35:00,
2013-01-26 17:40:00,27.2,12.7,30.45,SSE,150,0.0,-999.0,54,0.00,,,0.00,Wunderground v.1.15,2013-01-26 23:40:00,
2013-01-26 17:45:00,26.9,13.3,30.44,SSE,150,0.0,-999.0,56,0.00,,,0.00,Wunderground v.1.15,2013-01-26 23:45:00,
2013-01-26 17:50:00,26.5,14.1,30.44,SSE,150,0.0,-999.0,59,0.00,,,0.00,Wunderground v.1.15,2013-01-26 23:50:00,
2013-01-26 17:55:00,26.1,13.7,30.44,SSE,150,0.0,-999.0,59,0.00,,,0.00,Wunderground v.1.15,2013-01-26 23:55:00,
2013-01-26 18:05:00,25.4,13.8,30.43,SSE,150,0.0,-999.0,61,0.00,,,0.00,Wunderground v.1.15,2013-01-27 00:05:00,
2013-01-26 18:10:00,25.2,14.0,30.43,SSE,150,0.0,-999.0,62,0.00,,,0.00,Wunderground v.1.15,2013-01-27 00:10:00,
2013-01-26 18:15:00,25.0,13.8,30.43,SSE,150,0.0,-999.0,62,0.00,,,0.00,Wunderground v.1.15,2013-01-27 00:15:00,
2013-01-26 18:20:00,24.7,13.5,30.43,SSE,150,0.0,-999.0,62,0.00,,,0.00,Wunderground v.1.15,2013-01-27 00:20:00,
2013-01-26 18:25:00,24.4,13.6,30.43,SSE,150,0.0,-999.0,63,0.00,,,0.00,Wunderground v.1.15,2013-01-27 00:25:00,
2013-01-26 18:30:00,24.2,13.8,30.42,SSE,150,0.0,-999.0,64,0.00,,,0.00,Wunderground v.1.15,2013-01-27 00:30:00,
2013-01-26 18:35:00,24.1,13.7,30.42,SSE,149,0.0,-999.0,64,0.00,,,0.00,Wunderground v.1.15,2013-01-27 00:35:00,
2013-01-26 18:40:00,24.3,13.9,30.42,SE,133,1.0,-999.0,64,0.00,,,0.00,Wunderground v.1.15,2013-01-27 00:40:00,
2013-01-26 18:45:00,24.4,14.3,30.42,SE,134,1.0,-999.0,65,0.00,,,0.00,Wunderground v.1.15,2013-01-27 00:45:00,
2013-01-26 18:50:00,24.5,14.1,30.42,SE,135,1.0,-999.0,64,0.00,,,0.00,Wunderground v.1.15,2013-01-27 00:50:00,
2013-01-26 18:55:00,24.8,14.3,30.42,ESE,106,2.0,-999.0,64,0.00,,,0.00,Wunderground v.1.15,2013-01-27 00:55:00,
2013-01-26 19:05:00,24.9,14.1,30.42,ESE,106,0.0,-999.0,63,0.00,,,0.00,Wunderground v.1.15,2013-01-27 01:05:00,
2013-01-26 19:10:00,24.9,13.7,30.43,ESE,106,0.0,-999.0,62,0.00,,,0.00,Wunderground v.1.15,2013-01-27 01:10:00,
2013-01-26 19:15:00,24.9,13.7,30.43,ESE,106,0.0,-999.0,62,0.00,,,0.00,Wunderground v.1.15,2013-01-27 01:15:00,
2013-01-26 19:20:00,24.9,13.7,30.43,ESE,106,0.0,-999.0,62,0.00,,,0.00,Wunderground v.1.15,2013-01-27 01:20:00,
2013-01-26 19:25:00,25.0,13.8,30.43,ESE,106,0.0,-999.0,62,0.00,,,0.00,Wunderground v.1.15,2013-01-27 01:25:00,
2013-01-26 19:30:00,24.9,14.1,30.43,ESE,106,0.0,-999.0,63,0.00,,,0.00,Wunderground v.1.15,2013-01-27 01:30:00,
2013-01-26 19:40:00,24.8,14.0,30.44,ESE,106,0.0,-999.0,63,0.00,,,0.00,Wunderground v.1.15,2013-01-27 01:40:00,
2013-01-26 19:45:00,24.8,14.7,30.44,ESE,106,0.0,-999.0,65,0.00,,,0.00,Wunderground v.1.15,2013-01-27 01:45:00,
2013-01-26 19:50:00,24.8,14.7,30.44,ESE,106,0.0,-999.0,65,0.00,,,0.00,Wunderground v.1.15,2013-01-27 01:50:00,
2013-01-26 19:55:00,24.9,14.4,30.45,ESE,116,1.0,-999.0,64,0.00,,,0.00,Wunderground v.1.15,2013-01-27 01:55:00,
2013-01-26 20:00:00,25.0,14.2,30.44,ESE,116,1.0,-999.0,63,0.00,,,0.00,Wunderground v.1.15,2013-01-27 02:00:00,
2013-01-26 20:05:00,25.1,14.3,30.44,ESE,116,0.0,-999.0,63,0.00,,,0.00,Wunderground v.1.15,2013-01-27 02:05:00,
2013-01-26 20:15:00,25.1,15.7,30.43,ESE,116,0.0,-999.0,67,0.00,,,0.00,Wunderground v.1.15,2013-01-27 02:15:00,
2013-01-26 20:20:00,25.0,15.2,30.44,ESE,116,0.0,-999.0,66,0.00,,,0.00,Wunderground v.1.15,2013-01-27 02:20:00,
2013-01-26 20:25:00,25.0,14.9,30.44,ESE,116,0.0,-999.0,65,0.00,,,0.00,Wunderground v.1.15,2013-01-27 02:25:00,
2013-01-26 20:30:00,25.2,15.1,30.44,ESE,116,0.0,-999.0,65,0.00,,,0.00,Wunderground v.1.15,2013-01-27 02:30:00,
2013-01-26 20:35:00,25.4,15.3,30.44,ESE,116,1.0,-999.0,65,0.00,,,0.00,Wunderground v.1.15,2013-01-27 02:35:00,
2013-01-26 20:45:00,25.6,15.5,30.44,ESE,116,0.0,-999.0,65,0.00,,,0.00,Wunderground v.1.15,2013-01-27 02:45:00,
2013-01-26 20:50:00,25.6,15.8,30.43,ESE,116,0.0,-999.0,66,0.00,,,0.00,Wunderground v.1.15,2013-01-27 02:50:00,
2013-01-26 20:55:00,25.6,16.2,30.43,ESE,116,0.0,-999.0,67,0.00,,,0.00,Wunderground v.1.15,2013-01-27 02:55:00,
2013-01-26 21:00:00,25.5,16.4,30.43,ESE,116,0.0,-999.0,68,0.00,,,0.00,Wunderground v.1.15,2013-01-27 03:00:00,
2013-01-26 21:05:00,25.5,16.1,30.44,ESE,116,0.0,-999.0,67,0.00,,,0.00,Wunderground v.1.15,2013-01-27 03:05:00,
2013-01-26 21:10:00,25.5,16.1,30.44,ESE,116,0.0,-999.0,67,0.00,,,0.00,Wunderground v.1.15,2013-01-27 03:10:00,
2013-01-26 21:15:00,25.5,16.1,30.44,ESE,116,0.0,-999.0,67,0.00,,,0.00,Wunderground v.1.15,2013-01-27 03:15:00,
2013-01-26 21:20:00,25.6,16.2,30.44,ESE,118,0.0,-999.0,67,0.00,,,0.00,Wunderground v.1.15,2013-01-27 03:20:00,
2013-01-26 21:25:00,25.8,16.0,30.44,ESE,118,1.0,-999.0,66,0.00,,,0.00,Wunderground v.1.15,2013-01-27 03:25:00,
2013-01-26 21:30:00,26.0,16.2,30.43,ESE,118,1.0,-999.0,66,0.00,,,0.00,Wunderground v.1.15,2013-01-27 03:30:00,
2013-01-26 21:35:00,26.3,16.1,30.43,ESE,121,2.0,-999.0,65,0.00,,,0.00,Wunderground v.1.15,2013-01-27 03:35:00,
2013-01-26 21:40:00,26.5,16.3,30.43,ESE,121,2.0,-999.0,65,0.00,,,0.00,Wunderground v.1.15,2013-01-27 03:40:00,
2013-01-26 21:50:00,26.9,16.3,30.43,SE,142,2.0,-999.0,64,0.00,,,0.00,Wunderground v.1.15,2013-01-27 03:50:00,
2013-01-26 21:55:00,27.0,16.1,30.43,SE,126,4.0,-999.0,63,0.00,,,0.00,Wunderground v.1.15,2013-01-27 03:55:00,
2013-01-26 22:00:00,27.1,16.2,30.43,SE,137,3.0,-999.0,63,0.00,,,0.00,Wunderground v.1.15,2013-01-27 04:00:00,
2013-01-26 22:05:00,27.1,16.2,30.43,SSE,149,2.0,-999.0,63,0.00,,,0.00,Wunderground v.1.15,2013-01-27 04:05:00,
2013-01-26 22:10:00,27.1,16.2,30.43,SSE,149,2.0,-999.0,63,0.00,,,0.00,Wunderground v.1.15,2013-01-27 04:10:00,
2013-01-26 22:20:00,27.0,16.4,30.44,SSE,148,1.0,-999.0,64,0.00,,,0.00,Wunderground v.1.15,2013-01-27 04:20:00,
2013-01-26 22:25:00,26.9,16.3,30.44,SSE,148,2.0,-999.0,64,0.00,,,0.00,Wunderground v.1.15,2013-01-27 04:25:00,
2013-01-26 22:30:00,26.8,16.2,30.44,SSE,149,1.0,-999.0,64,0.00,,,0.00,Wunderground v.1.15,2013-01-27 04:30:00,
2013-01-26 22:35:00,26.7,16.5,30.44,SSE,149,2.0,-999.0,65,0.00,,,0.00,Wunderground v.1.15,2013-01-27 04:35:00,
2013-01-26 22:40:00,26.6,16.8,30.44,SSE,150,2.0,-999.0,66,0.00,,,0.00,Wunderground v.1.15,2013-01-27 04:40:00,
2013-01-26 22:45:00,26.5,16.7,30.44,SSE,156,2.0,-999.0,66,0.00,,,0.00,Wunderground v.1.15,2013-01-27 04:45:00,
2013-01-26 22:55:00,26.3,16.8,30.44,South,191,2.0,-999.0,67,0.00,,,0.00,Wunderground v.1.15,2013-01-27 04:55:00,
2013-01-26 23:05:00,26.1,17.0,30.44,SSE,156,1.0,-999.0,68,0.00,,,0.00,Wunderground v.1.15,2013-01-27 05:05:00,
2013-01-26 23:10:00,26.0,17.2,30.44,SSE,153,2.0,-999.0,69,0.00,,,0.00,Wunderground v.1.15,2013-01-27 05:10:00,
2013-01-26 23:15:00,26.1,17.3,30.44,SSE,161,2.0,-999.0,69,0.00,,,0.00,Wunderground v.1.15,2013-01-27 05:15:00,
2013-01-26 23:25:00,26.3,17.5,30.44,SSE,161,4.0,-999.0,69,0.00,,,0.00,Wunderground v.1.15,2013-01-27 05:25:00,
2013-01-26 23:30:00,26.4,17.6,30.45,SSE,160,3.0,-999.0,69,0.00,,,0.00,Wunderground v.1.15,2013-01-27 05:30:00,
2013-01-26 23:35:00,26.5,17.7,30.44,SSE,155,3.0,-999.0,69,0.00,,,0.00,Wunderground v.1.15,2013-01-27 05:35:00,
2013-01-26 23:40:00,26.6,18.1,30.44,SSE,167,2.0,-999.0,70,0.00,,,0.00,Wunderground v.1.15,2013-01-27 05:40:00,
2013-01-26 23:45:00,26.6,18.1,30.45,SSE,166,3.0,-999.0,70,0.00,,,0.00,Wunderground v.1.15,2013-01-27 05:45:00,
2013-01-26 23:50:00,26.7,18.2,30.44,SSE,157,4.0,-999.0,70,0.00,,,0.00,Wunderground v.1.15,2013-01-27 05:50:00,
2013-01-26 23:55:00,26.7,18.2,30.44,SE,144,4.0,-999.0,70,0.00,,,0.00,Wunderground v.1.15,2013-01-27 05:55:00,